Regional Weather Roundup
Issued by NWS

Home | Current Version | Previous Version | Graphics & Text | Print | Product List | Glossary On
Versions: 1 2 3 4 5 6 7 8 9 10 11 12 13 14 15 16 17 18 19 20 21 22 23 24 25 26 27 28 29 30 31 32 33 34 35 36 37 38 39 40 41 42 43 44 45 46 47 48 49 50
000
ASUS45 KBOI 250210
RWRID
WEATHER ROUNDUP FOR IDAHO
NATIONAL WEATHER SERVICE BOISE ID
700 PM MST SAT JAN 24 2015

NOTE: "FAIR" INDICATES FEW OR NO CLOUDS BELOW 12000 FEET
WITH NO SIGNIFICANT WEATHER AND/OR OBSTRUCTIONS TO VISIBILITY

IDZ012-014-250300-
SOUTHWEST IDAHO


CITY           SKY/WX    TMP DP  RH WIND       PRES   REMARKS
BOISE          CLOUDY    38  32  79 CALM      30.46S
CALDWELL       CLEAR     36  27  69 CALM      30.49S
MOUNTAIN HOME  CLOUDY    36  31  83 NE5       30.46S WCI  32
$$

IDZ016-017-250300-
SOUTHCENTRAL IDAHO


CITY           SKY/WX    TMP DP  RH WIND       PRES   REMARKS
BURLEY         CLOUDY    36  30  79 S5        30.40F WCI  32
JEROME         CLEAR     31  28  89 SE5       30.43S WCI  26
TWIN FALLS     CLOUDY    35  30  82 VRB5      30.42F WCI  31
$$

IDZ019>023-250300-
SOUTHEAST IDAHO


CITY           SKY/WX    TMP DP  RH WIND       PRES   REMARKS
IDAHO FALLS    CLOUDY    27  26  96 N8        30.46R FOG     WCI  19
POCATELLO      CLOUDY    31  30  96 E5        30.43S WCI  26
REXBURG        CLOUDY    27  27 100 CALM      30.44R FOG
$$

IDZ006-010-011-018-031-032-250300-
CENTRAL IDAHO MOUNTAINS


CITY           SKY/WX    TMP DP  RH WIND       PRES   REMARKS
MCCALL         CLOUDY    36  33  89 N3        30.40R
HAILEY         PTCLDY    25  21  86 SE5       30.42R WCI  19
STANLEY          N/A     36  31  82 SE3       30.40S
SALMON         CLOUDY    30  25  80 CALM      30.39R
CHALLIS        CLOUDY    34  29  82 CALM      30.36S
$$

IDZ002-004-006-007-026-250300-
NORTHERN IDAHO


CITY           SKY/WX    TMP DP  RH WIND       PRES   REMARKS
LEWISTON       PTCLDY    48  43  82 E7        30.28F
LOWELL           N/A     37  36  96 N5        30.39F WCI  33
COEUR D`ALENE  CLOUDY    37  37 100 CALM      30.25S VSB 1/2
MULLAN PASS    FOG       36  36 100 SW8       30.26S VSB 1/4 WCI  30
$$


USA.gov is the U.S. government's official web portal to all federal, state and local government web resources and services.